Preview of NWS' New Version of Forecast
This preview is not operational and should not be used for support decisions.

Regional Weather Roundup (RWR)

Issued by National Weather Service (NWS)

                            
000
ASUS43 KLSX 201007
RWRMO 

WEATHER SUMMARY FOR MISSOURI
NATIONAL WEATHER SERVICE SPRINGFIELD MO
400 AM CST WED FEB 20 2019

NOTE: "FAIR" INDICATES FEW OR NO CLOUDS BELOW 12,000 FEET WITH NO
       SIGNIFICANT WEATHER AND/OR OBSTRUCTIONS TO VISIBILITY.
       CURRENT SKY AND/OR WEATHER CONDITIONS ARE NOT AVAILABLE FOR
       CHILLICOTHE AND FARMINGTON.

MOZ001>031-035>038-043-044-053-054-201100-
...NORTHERN AND WESTERN MISSOURI...
  
CITY           SKY/WX    TMP DP  RH WIND       PRES   REMARKS
KANSAS CTY INT FRZ DRZL  29  27  92 SE12      29.79F FOG     WCI  19  
KANSAS C DTWN  CLOUDY    32  28  85 SE3       29.81F                  
LEE'S SUMMIT   CLOUDY    29  29 100 SE6       29.80F FOG     WCI  23  
ST JOSEPH      CLOUDY    28  28 100 SE6       29.81F FOG     WCI  22  
CHILLICOTHE      N/A     30  29  96 E8        29.83F WCI  22          
KIRKSVILLE     CLOUDY    29  29 100 E10       29.84F FOG     WCI  20  
     
$$
MOZ066>068-077>081-088>096-101>105-201100-
...SOUTHWEST MISSOURI...
  
CITY           SKY/WX    TMP DP  RH WIND       PRES   REMARKS
SPRINGFIELD    CLOUDY    34  32  92 S6        29.81R FOG     WCI  29  
JOPLIN         CLOUDY    34  33  96 S7        29.83S FOG     WCI  28  
BRANSON        FOG       32  32 100 CALM      29.83R VSB 1/2          
               
$$
MOZ032>034-039>042-045>050-055>058-069>072-201100-
...CENTRAL MISSOURI...  
  
CITY           SKY/WX    TMP DP  RH WIND       PRES   REMARKS
COLUMBIA       CLOUDY    32  30  92 SE8       29.83F FOG     WCI  25  
JEFFERSON CITY CLOUDY    33  30  88 SE5       29.85S WCI  29          
ROLLA          CLOUDY    32  31  96 E3        29.82S FOG              
SEDALIA        CLOUDY    31  31 100 SE9       29.82F FOG     WCI  23  
WHITEMAN AFB   CLOUDY    31  31 100 E3        29.77F FOG              
WARRENSBURG    CLOUDY    32  30  93 E3        29.81S FOG              
OSAGE BEACH    MIX PCPN  32  31  96 E3        29.83F FOG              
               
$$
MOZ051-052-059>065-201100-
...EAST CENTRAL MISSOURI...
  
CITY           SKY/WX    TMP DP  RH WIND       PRES   REMARKS
ST LOUIS INTL  DRIZZLE   33  31  92 SE14      29.88R FOG     WCI  23  
SPIRIT OF STL  LGT RAIN  34  32  92 E6        29.87F FOG     WCI  29  
ST CHARLES     CLOUDY    33  32  96 SE9       29.90R WCI  25          
                   
$$
MOZ072>076-082>087-097>100-106>115-201100-
...SOUTH CENTRAL AND SOUTHEAST MISSOURI...
  
CITY           SKY/WX    TMP DP  RH WIND       PRES   REMARKS
CAPE GIRARDEAU CLOUDY    39  37  92 E7        29.84F                  
FARMINGTON     MIX PCPN  32  32 100 NE3       29.84F FOG              
POPLAR BLUFF   CLOUDY    37  37 100 N3        29.85F                  
WEST PLAINS    FOG       35  32  88 E5        29.80F VSB 3/4          
                                       
$$